weather.gov     
National Weather Service

Terminal Aerodrome Forecast
NWS Homepage
This page is being discontinued on March 12, 2014.
The same data is available at this site. Please update your bookmarks.
Thank you, and we apologize for the inconvenience.
Please send an email to SR-SRH.Webmaster@noaa.gov with any concerns.


Current Version
Previous Version:    01  02  03  04  05  06  07  08  09  10  11  12  13  14  15  16  17  18  19  20  21  22  23  24  25  26  27  28  29  30  
   31  32  33  34  35  36  37  38  39  
[Printable]
457
FTUS44 KLZK 190900 AAA
TAFPBF
TAF AMD
KPBF 190909Z 1909/2006 00000KT 6SM BR SCT007
      TEMPO 1909/1913 4SM BR OVC007
     FM191300 VRB03KT 4SM BR SCT007 BKN015
     FM191500 07003KT P6SM BKN025
     FM191700 10005KT P6SM SCT040
     FM200000 VRB03KT P6SM SCT250=


U.S. Dept. of Commerce
NOAA National Weather Service
1325 East West Highway
Silver Spring, MD 20910
E-mail: w-nws.webmaster@noaa.gov
Page last modified: May 16, 2007
NATIONAL WEATHER SERVICE: for Safety, for Work, for Fun - FOR LIFE